User: anonymous   Login
Location: Unspecified
(0.0000°N, 0.0000°E)
Time: 20:01:33
(UTC+00:00)
Language:

TIGRISAT - Orbit

View from above orbital plane
View from above orbital plane
View from above satellite
View from above satellite

Ground track
Ground track

The orbit data is extracted from the following two-line orbital elements,

1 40043U 14033AK  18350.89248977  .00000092  00000-0  21145-4 0  9991
2 40043  97.7813 221.2559 0059425 331.1097  28.6826 14.74207147241526
Epoch (UTC): 16 December 2018 21:25:11
Eccentricity: 0.0059425
inclination: 97.7813°
perigee height: 606 km
apogee height: 689 km
right ascension of ascending node: 221.2559°
argument of perigee: 331.1097°
revolutions per day: 14.74207147
mean anomaly at epoch: 28.6826°
orbit number at epoch: 24152

The dashed part of the orbit path shows where the satellite is in the earth's shadow,  

DLR